Bartlesville, OK

1:47 PM CST on January 20, 2018 (GMT -0600)
Bartlesville Municipal

Weather History for KBVO - November, 2013

Change the Weather History Date:

Sunday, November 17, 2013

  Actual Average Record
Temperature  
Mean Temperature 62 °F -  
Max Temperature 72 °F 60 °F 80 °F (1969)
Min Temperature 48 °F 36 °F 7 °F (1959)
Degree Days  
Heating Degree Days 3    
Growing Degree Days 12 (Base 50)    
Moisture  
Dew Point 37 °F    
Average Humidity 43    
Maximum Humidity 81    
Minimum Humidity 17    
Precipitation  
Precipitation 0.00 in - - ()
Sea Level Pressure  
Sea Level Pressure 29.76 in    
Wind  
Wind Speed 11 mph (West)    
Max Wind Speed 17 mph    
Max Gust Speed 31 mph    
Visibility 10 miles    
Events      
Averages and records for this station are not official NWS values.
T = Trace of Precipitation, MM = Missing Value Source: NWS Daily Summary

Daily Weather History Graph

Daily Weather History Graph

Search for Another Location

Airport or City:

Trip Planner

Search our weather history database for the weather conditions in past years. The results will help you decide how hot, cold, wet, or windy it might be!

Date:

Astronomy

Nov. 17, 2013 Rise Set
Actual Time 7:04 AM CST 5:13 PM CST
Civil Twilight 6:36 AM CST 5:41 PM CST
Nautical Twilight 6:05 AM CST 6:12 PM CST
Astronomical Twilight 5:34 AM CST 6:43 PM CST
Moon 5:31 PM CST (11/17) 6:59 AM CST (11/17)
Length of Visible Light 11h 04m
Length of Day
10h 08m
Full, 100% of the Moon is Illuminated
Nov 17
Full
Nov 25
Last Quarter
Dec 2
New
Dec 9
First Quarter
Dec 17
Full

Hourly Weather History & Observations

Time (CST) Temp. Dew Point Humidity Pressure Visibility Wind Dir Wind Speed Gust Speed Precip Events Conditions
12:53 AM 69.1 °F 62.1 °F 78% 29.48 in 10.0 mi SSW 13.8 mph 28.8 mph N/A   Clear
1:53 AM 68.0 °F 62.1 °F 81% 29.47 in 10.0 mi SSW 15.0 mph 31.1 mph N/A   Clear
2:53 AM 68.0 °F 62.1 °F 81% 29.47 in 10.0 mi SSW 13.8 mph 23.0 mph N/A   Clear
3:53 AM 68.0 °F 61.0 °F 78% 29.46 in 10.0 mi SSW 17.3 mph 26.5 mph N/A   Clear
4:53 AM 68.0 °F 60.1 °F 76% 29.46 in 10.0 mi SSW 13.8 mph 24.2 mph N/A   Clear
5:53 AM 66.9 °F 59.0 °F 76% 29.48 in 10.0 mi SW 10.4 mph 24.2 mph N/A   Clear
6:53 AM 66.9 °F 55.0 °F 66% 29.53 in 10.0 mi WSW 12.7 mph 20.7 mph N/A   Clear
7:53 AM 64.9 °F 42.1 °F 43% 29.62 in 10.0 mi West 13.8 mph 25.3 mph N/A   Clear
8:53 AM 62.1 °F 37.0 °F 39% 29.70 in 10.0 mi Variable 6.9 mph - N/A   Clear
9:53 AM 66.0 °F 37.9 °F 36% 29.74 in 10.0 mi Variable 4.6 mph - N/A   Clear
11:53 AM 71.1 °F 35.1 °F 27% 29.77 in 10.0 mi Variable 4.6 mph - N/A   Clear
12:53 PM 72.0 °F 28.0 °F 20% 29.78 in 10.0 mi West 9.2 mph - N/A   Clear
1:53 PM 72.0 °F 27.0 °F 19% 29.79 in 10.0 mi Variable 6.9 mph - N/A   Clear
2:53 PM 72.0 °F 27.0 °F 19% 29.82 in 10.0 mi NW 8.1 mph - N/A   Clear
3:53 PM 69.1 °F 27.0 °F 21% 29.87 in 10.0 mi Variable 6.9 mph 21.9 mph N/A   Clear
4:53 PM 64.9 °F 19.0 °F 17% 29.90 in 10.0 mi NW 9.2 mph 17.3 mph N/A   Clear
5:53 PM 55.9 °F 21.9 °F 27% 29.94 in 10.0 mi WNW 3.5 mph - N/A   Clear
6:53 PM 57.0 °F 18.0 °F 22% 29.98 in 10.0 mi WNW 3.5 mph - N/A   Clear
7:53 PM 54.0 °F 19.0 °F 25% 30.02 in 10.0 mi Variable 3.5 mph - N/A   Clear
8:53 PM 53.1 °F 21.0 °F 29% 30.03 in 10.0 mi North 9.2 mph - N/A   Clear
9:53 PM 53.1 °F 21.9 °F 30% 30.04 in 10.0 mi North 9.2 mph 21.9 mph N/A   Clear
10:53 PM 52.0 °F 26.1 °F 37% 30.08 in 10.0 mi North 3.5 mph 16.1 mph N/A   Clear
11:53 PM 48.9 °F 28.0 °F 44% 30.12 in 10.0 mi Calm Calm - N/A   Clear